Weather History for Zephyrhills, FL

Change the Weather History Date:

Saturday, September 21, 2013

  Actual Average (KPCM) Record (KPCM)
Temperature  
Mean Temperature 78 °F -  
Max Temperature 89 °F 90 °F 95 °F (1933)
Min Temperature 66 °F 70 °F 52 °F (1938)
Cooling Degree Days 12    
Growing Degree Days 28 (Base 50)    
Moisture  
Dew Point 68 °F    
Average Humidity 78    
Maximum Humidity 100    
Minimum Humidity 36    
Precipitation  
Precipitation 0.00 in - - ()
Sea Level Pressure  
Sea Level Pressure 29.85 in    
Wind  
Wind Speed 1 mph (SSE)    
Max Wind Speed 7 mph    
Max Gust Speed -    
Visibility 10 miles    
Events      
Averages and records for this station are not official NWS values.
T = Trace of Precipitation, MM = Missing Value Source: NWS Daily Summary

Daily Weather History Graph

Daily Weather History Graph

Search for Another Location

Airport:

Trip Planner

Search our weather history database for the weather conditions in past years. The results will help you decide how hot, cold, wet, or windy it might be!

Date:

Astronomy

Sep. 21, 2013 Rise Set
Actual Time 7:16 AM EDT 7:26 PM EDT
Civil Twilight 6:53 AM EDT 7:49 PM EDT
Nautical Twilight 6:25 AM EDT 8:16 PM EDT
Astronomical Twilight 5:58 AM EDT 8:44 PM EDT
Moon 8:52 PM EDT (9/21) 9:18 AM EDT (9/21)
Length of Visible Light 12h 56m
Length of Day
12h 09m
Waning Gibbous, 94% of the Moon is Illuminated
Sep 21
Waning Gibbous
Sep 26
Last Quarter
Oct 4
New
Oct 11
First Quarter
Oct 18
Full

Hourly Weather History & Observations

Time (EDT) Temp. Heat Index Dew Point Humidity Pressure Visibility Wind Dir Wind Speed Gust Speed Precip Events Conditions
12:15 AM 71.6 °F - 71.6 °F 100% - 10.0 mi Calm Calm - N/A   Clear
12:35 AM 71.6 °F - 71.6 °F 100% - 10.0 mi Calm Calm - N/A   Clear
12:55 AM 69.8 °F - 69.8 °F 100% - 10.0 mi Calm Calm - N/A   Clear
1:15 AM 69.8 °F - 69.8 °F 100% - 10.0 mi Calm Calm - N/A   Clear
1:35 AM 69.8 °F - 69.8 °F 100% - 10.0 mi Calm Calm - N/A   Clear
1:55 AM 69.8 °F - 69.8 °F 100% - 10.0 mi Calm Calm - N/A   Clear
2:15 AM 69.8 °F - 69.8 °F 100% - 10.0 mi Calm Calm - N/A   Clear
2:35 AM 69.8 °F - 69.8 °F 100% - 10.0 mi Calm Calm - N/A   Clear
2:55 AM 68.0 °F - 68.0 °F 100% - 10.0 mi Calm Calm - N/A   Clear
3:15 AM 68.0 °F - 68.0 °F 100% - 10.0 mi Calm Calm - N/A   Clear
3:35 AM 68.0 °F - 68.0 °F 100% - 10.0 mi Calm Calm - N/A   Clear
3:55 AM 68.0 °F - 68.0 °F 100% - 10.0 mi Calm Calm - N/A   Clear
4:15 AM 68.0 °F - 68.0 °F 100% - 10.0 mi Calm Calm - N/A   Clear
4:35 AM 68.0 °F - 68.0 °F 100% - 10.0 mi East 3.5 mph - N/A   Clear
4:55 AM 68.0 °F - 68.0 °F 100% - 10.0 mi Calm Calm - N/A   Clear
5:15 AM 68.0 °F - 68.0 °F 100% - 10.0 mi Calm Calm - N/A   Clear
5:35 AM 68.0 °F - 68.0 °F 100% - 10.0 mi Calm Calm - N/A   Clear
5:55 AM 68.0 °F - 68.0 °F 100% - 10.0 mi Calm Calm - N/A   Clear
6:15 AM 68.0 °F - 68.0 °F 100% - 10.0 mi Calm Calm - N/A   Clear
6:35 AM 68.0 °F - 68.0 °F 100% - 10.0 mi Calm Calm - N/A   Clear
6:55 AM 68.0 °F - 68.0 °F 100% - 7.0 mi Calm Calm - N/A   Clear
7:15 AM 68.0 °F - 68.0 °F 100% - 2.0 mi Calm Calm - N/A   Clear
7:35 AM 66.2 °F - 66.2 °F 100% - 2.0 mi Calm Calm - N/A   Clear
7:55 AM 68.0 °F - 68.0 °F 100% - 10.0 mi Calm Calm - N/A   Clear
8:15 AM 68.0 °F - 68.0 °F 100% - 10.0 mi Calm Calm - N/A   Clear
8:35 AM 69.8 °F - 69.8 °F 100% - 10.0 mi Calm Calm - N/A   Clear
8:55 AM 73.4 °F - 73.4 °F 100% 29.93 in 10.0 mi Calm Calm - N/A   Clear
9:15 AM 77.0 °F - 75.2 °F 94% - 10.0 mi North - - N/A   Clear
9:35 AM 78.8 °F - 77.0 °F 94% 29.92 in 10.0 mi SSE 5.8 mph - N/A   Clear
9:55 AM 80.6 °F 87.1 °F 77.0 °F 89% 29.92 in 10.0 mi SE 6.9 mph - N/A   Clear
10:15 AM 80.6 °F 85.4 °F 73.4 °F 79% 29.92 in 10.0 mi South 6.9 mph - N/A   Clear
10:35 AM 82.4 °F 86.3 °F 69.8 °F 66% 29.91 in 10.0 mi ESE 4.6 mph - N/A   Clear
10:55 AM 82.4 °F 85.4 °F 68.0 °F 62% 29.91 in 10.0 mi SSE 4.6 mph - N/A   Clear
11:15 AM 82.4 °F 84.6 °F 66.2 °F 58% 29.91 in 10.0 mi South 6.9 mph - N/A   Clear
11:35 AM 84.2 °F 85.6 °F 64.4 °F 51% 29.91 in 10.0 mi SE 5.8 mph - N/A   Clear
11:55 AM 86.0 °F 87.3 °F 64.4 °F 48% 29.91 in 10.0 mi Calm Calm - N/A   Clear
12:15 PM 86.0 °F 86.6 °F 62.6 °F 45% 29.90 in 10.0 mi Calm Calm - N/A   Clear
12:35 PM 86.0 °F 87.3 °F 64.4 °F 48% 29.90 in 10.0 mi WSW 4.6 mph - N/A   Clear
12:55 PM 86.0 °F 86.6 °F 62.6 °F 45% 29.89 in 10.0 mi SSE 6.9 mph - N/A   Clear
1:15 PM 87.8 °F 89.4 °F 64.4 °F 46% 29.89 in 10.0 mi Calm Calm - N/A   Clear
1:35 PM 87.8 °F 88.5 °F 62.6 °F 43% 29.88 in 10.0 mi SE 5.8 mph - N/A   Scattered Clouds
1:55 PM 87.8 °F 88.5 °F 62.6 °F 43% 29.87 in 10.0 mi Calm Calm - N/A   Scattered Clouds
2:15 PM 87.8 °F 88.5 °F 62.6 °F 43% 29.87 in 10.0 mi SSW 5.8 mph - N/A   Mostly Cloudy
2:35 PM 89.6 °F 89.5 °F 60.8 °F 38% 29.85 in 10.0 mi East 3.5 mph - N/A   Scattered Clouds
2:55 PM 89.6 °F 89.5 °F 60.8 °F 38% 29.84 in 10.0 mi SSE 5.8 mph - N/A   Scattered Clouds
3:15 PM 87.8 °F 87.6 °F 60.8 °F 40% 29.83 in 10.0 mi East 4.6 mph - N/A   Scattered Clouds
3:35 PM 89.6 °F 89.5 °F 60.8 °F 38% 29.82 in 10.0 mi South 3.5 mph - N/A   Scattered Clouds
3:55 PM 89.6 °F 88.9 °F 59.0 °F 36% 29.82 in 10.0 mi SSE 3.5 mph - N/A   Clear
4:15 PM 89.6 °F 89.5 °F 60.8 °F 38% 29.81 in 10.0 mi South 4.6 mph - N/A   Clear
4:35 PM 86.0 °F 86.1 °F 60.8 °F 43% 29.81 in 10.0 mi SE 3.5 mph - N/A   Clear
4:55 PM 89.6 °F 89.5 °F 60.8 °F 38% 29.80 in 10.0 mi SW 5.8 mph - N/A   Scattered Clouds
5:15 PM 87.8 °F 87.6 °F 60.8 °F 40% 29.80 in 10.0 mi South 5.8 mph - N/A   Scattered Clouds
5:35 PM 86.0 °F 86.1 °F 60.8 °F 43% 29.79 in 10.0 mi South 4.6 mph - N/A   Clear
5:55 PM 86.0 °F 86.6 °F 62.6 °F 45% 29.80 in 10.0 mi South 3.5 mph - N/A   Clear
6:15 PM 84.2 °F 85.6 °F 64.4 °F 51% 29.80 in 10.0 mi SSW 3.5 mph - N/A   Clear
6:35 PM 82.4 °F 83.9 °F 64.4 °F 54% 29.80 in 10.0 mi SW 3.5 mph - N/A   Clear
6:55 PM 82.4 °F 85.4 °F 68.0 °F 62% 29.80 in 10.0 mi SW 3.5 mph - N/A   Clear
7:15 PM 80.6 °F 83.2 °F 68.0 °F 65% 29.80 in 10.0 mi Calm Calm - N/A   Clear
7:35 PM 80.6 °F 83.2 °F 68.0 °F 65% 29.81 in 10.0 mi WSW 3.5 mph - N/A   Clear
7:55 PM 78.8 °F - 69.8 °F 74% 29.81 in 10.0 mi Calm Calm - N/A   Clear
8:15 PM 77.0 °F - 71.6 °F 83% 29.80 in 10.0 mi Calm Calm - N/A   Clear
8:35 PM 75.2 °F - 73.4 °F 94% 29.81 in 10.0 mi Calm Calm - N/A   Clear
8:55 PM 75.2 °F - 73.4 °F 94% 29.82 in 10.0 mi Calm Calm - N/A   Clear
9:15 PM 73.4 °F - 73.4 °F 100% 29.82 in 10.0 mi Calm Calm - N/A   Clear
9:35 PM 73.4 °F - 73.4 °F 100% 29.83 in 10.0 mi Calm Calm - N/A   Clear
9:55 PM 73.4 °F - 73.4 °F 100% 29.83 in 10.0 mi Calm Calm - N/A   Clear
10:15 PM 73.4 °F - 73.4 °F 100% 29.83 in 10.0 mi Calm Calm - N/A   Clear
10:35 PM 71.6 °F - 71.6 °F 100% 29.83 in 10.0 mi Calm Calm - N/A   Clear
10:55 PM 71.6 °F - 71.6 °F 100% 29.83 in 10.0 mi Calm Calm - N/A   Clear
11:15 PM 71.6 °F - 71.6 °F 100% 29.84 in 10.0 mi Calm Calm - N/A   Clear
11:35 PM 71.6 °F - 71.6 °F 100% 29.83 in 10.0 mi Calm Calm - N/A   Clear
11:55 PM 71.6 °F - 71.6 °F 100% 29.84 in 10.0 mi Calm Calm - N/A   Clear